SA3VCC-13 Weather Reports


time (UTC)temp
F
wind
direction
speed
knots
gust
knots
rain 1hr
in
rain 24hr
in
rain mn
in
humidity
%
barometer
mb
20221203054139 33 90 0.9 3.5 0.00 0.18 0.00 100 1035.9
20221203053137 33 351 0.9 3.5 0.00 0.18 0.00 100 1035.9
20221203052135 33 73 0.9 3.5 0.00 0.18 0.00 100 1035.9
20221203051133 33 18 1.7 4.3 0.00 0.18 0.00 100 1036.0
20221203050131 33 0 0.9 2.6 0.00 0.18 0.00 100 1036.0
20221203045129 33 340 1.7 5.2 0.00 0.18 0.00 100 1036.0
20221203044127 34 355 1.7 3.5 0.00 0.18 0.00 100 1036.1
20221203043125 34 346 0.9 5.2 0.00 0.18 0.00 100 1036.2
20221203042123 34 61 0.9 5.2 0.00 0.18 0.00 100 1036.2
20221203041121 34 67 1.7 7.0 0.00 0.18 0.00 100 1036.2
20221203040119 34 45 1.7 5.2 0.00 0.18 0.00 100 1036.3
20221203035117 34 90 1.7 3.5 0.00 0.18 0.00 100 1036.4
20221203034115 34 75 1.7 6.1 0.00 0.18 0.00 100 1036.4
20221203033113 34 75 1.7 6.1 0.00 0.18 0.00 100 1036.4
20221203032111 34 90 1.7 6.1 0.00 0.18 0.00 100 1036.5
20221203031110 34 61 1.7 7.8 0.00 0.18 0.00 100 1036.5
20221203030107 34 53 1.7 5.2 0.00 0.18 0.00 100 1036.5
20221203025106 34 90 1.7 7.8 0.00 0.18 0.00 100 1036.5
20221203024103 34 90 1.7 7.0 0.00 0.18 0.00 100 1036.5
20221203023101 34 118 1.7 7.8 0.00 0.18 0.00 100 1036.5
20221203022059 34 90 1.7 5.2 0.00 0.18 0.00 100 1036.6
20221203021057 34 64 1.7 8.7 0.00 0.18 0.00 100 1036.6
20221203020055 34 120 1.7 6.1 0.00 0.18 0.00 100 1036.7
20221203015053 34 90 2.6 7.0 0.00 0.18 0.00 100 1036.7
20221203014051 34 76 2.6 7.0 0.00 0.18 0.00 100 1036.7
20221203013049 34 59 1.7 7.8 0.00 0.18 0.00 100 1036.7
20221203012047 34 60 1.7 5.2 0.00 0.18 0.00 100 1036.8
20221203011045 34 60 1.7 5.2 0.00 0.18 0.00 100 1036.8
20221203010043 34 61 1.7 6.1 0.00 0.18 0.00 100 1036.9
20221203005041 34 56 1.7 5.2 0.00 0.18 0.00 100 1036.9
20221203004039 34 75 1.7 6.1 0.00 0.18 0.00 100 1036.9
20221203003038 34 64 1.7 6.1 0.00 0.18 0.00 100 1037.0
20221203002035 34 82 1.7 7.8 0.00 0.18 0.00 100 1037.0
20221203001032 34 62 1.7 6.1 0.00 0.18 0.00 100 1037.1
20221203000032 34 100 1.7 9.6 0.00 0.18 0.00 100 1037.1
20221202235029 33 61 1.7 7.0 0.00 0.18 0.00 100 1037.2
20221202234027 33 80 1.7 7.0 0.00 0.18 0.00 100 1037.3
20221202233025 33 68 1.7 6.1 0.00 0.18 0.00 100 1037.3
20221202232023 33 90 1.7 6.1 0.00 0.18 0.00 100 1037.4
20221202231021 33 57 1.7 7.8 0.00 0.18 0.00 100 1037.4
20221202230019 33 17 1.7 8.7 0.00 0.18 0.00 100 1037.5
20221202225016 33 40 1.7 6.1 0.00 0.18 0.18 100 1037.4
20221202224015 33 36 1.7 6.1 0.00 0.18 0.18 100 1037.5
20221202224013 33 36 0.9 5.2 0.00 0.18 0.18 100 1037.7
20221202223013 33 54 1.7 7.8 0.00 0.18 0.18 100 1037.4
20221202222011 33 45 1.7 6.1 0.00 0.18 0.18 100 1037.5
20221202221012 33 73 2.6 7.8 0.00 0.18 0.18 100 1037.6
20221202220009 33 73 2.6 7.8 0.00 0.18 0.18 100 1037.6
20221202215004 33 90 0.9 5.2 0.00 0.18 0.18 100 1037.6
20221202214002 33 39 1.7 8.7 0.00 0.18 0.18 100 1037.7
20221202212500 34 61 1.7 5.2 0.00 0.18 0.18 100 1037.7
20221202211458 34 45 1.7 6.1 0.00 0.18 0.18 100 1037.7
20221202210456 34 45 1.7 7.0 0.00 0.18 0.18 100 1037.7
20221202205454 34 71 1.7 6.1 0.00 0.18 0.18 100 1037.7
20221202204452 34 64 1.7 8.7 0.00 0.18 0.18 100 1037.7
20221202203451 34 52 2.6 7.8 0.00 0.18 0.18 100 1037.6
20221202202448 34 45 1.7 6.1 0.00 0.18 0.18 100 1037.6
20221202201446 34 22 1.7 5.2 0.00 0.18 0.18 100 1037.5
20221202200444 34 14 1.7 5.2 0.00 0.18 0.18 100 1037.4
20221202195442 34 32 1.7 6.1 0.00 0.18 0.18 100 1037.4
20221202194440 34 45 0.9 5.2 0.00 0.18 0.18 100 1037.4
20221202193438 34 19 1.7 6.1 0.01 0.18 0.18 100 1037.3
20221202192436 34 30 0.9 4.3 0.01 0.18 0.18 100 1037.4
20221202191434 34 355 1.7 5.2 0.01 0.18 0.18 100 1037.4
20221202190433 34 34 1.7 7.8 0.01 0.18 0.18 100 1037.4
20221202185430 34 45 1.7 5.2 0.01 0.18 0.18 100 1037.3
20221202184428 34 39 1.7 6.1 0.01 0.18 0.18 100 1037.3
20221202183426 34 36 1.7 7.8 0.00 0.17 0.17 100 1037.4
20221202182424 34 36 1.7 8.7 0.00 0.17 0.17 100 1037.3
20221202181422 34 27 1.7 6.1 0.00 0.17 0.17 100 1037.3
20221202180420 34 26 1.7 6.1 0.00 0.17 0.17 100 1037.4
20221202175418 34 10 1.7 7.8 0.00 0.17 0.17 100 1037.4
20221202174416 33 45 0.9 5.2 0.00 0.17 0.17 100 1037.3
20221202173414 33 10 0.9 3.5 0.00 0.17 0.17 100 1037.3
20221202172412 33 18 1.7 5.2 0.00 0.17 0.17 100 1037.3
20221202171411 33 36 1.7 4.3 0.00 0.17 0.17 100 1037.3
20221202170408 33 26 0.9 3.5 0.01 0.17 0.17 100 1037.3
20221202165407 33 0 0.9 3.5 0.02 0.17 0.17 100 1037.3
20221202164404 33 25 1.7 5.2 0.02 0.17 0.17 100 1037.4
20221202163402 33 21 0.9 3.5 0.03 0.18 0.17 100 1037.3
20221202162400 34 32 0.9 5.2 0.04 0.18 0.17 100 1037.4
20221202161358 34 49 1.7 5.2 0.04 0.18 0.17 100 1037.4
20221202160357 34 30 1.7 5.2 0.03 0.17 0.17 100 1037.3
20221202155354 34 54 1.7 5.2 0.02 0.17 0.16 100 1037.3
20221202154352 34 34 1.7 6.1 0.02 0.16 0.15 100 1037.2
20221202153350 34 36 1.7 7.8 0.01 0.15 0.14 100 1037.2
20221202152348 34 45 0.9 4.3 0.01 0.14 0.14 100 1037.1
20221202151346 34 45 1.7 5.2 0.01 0.14 0.14 100 1037.1
20221202150344 34 45 1.7 5.2 0.01 0.14 0.14 100 1037.1
20221202145342 34 15 1.7 5.2 0.01 0.15 0.14 100 1037.1
20221202144341 34 15 1.7 5.2 0.01 0.16 0.14 100 1037.1
20221202143339 34 45 1.7 5.2 0.01 0.15 0.13 100 1037.1
20221202142336 35 29 0.9 5.2 0.00 0.15 0.13 100 1037.0
20221202141334 35 45 1.7 5.2 0.00 0.15 0.13 100 1037.0
20221202140332 35 39 0.9 2.6 0.00 0.15 0.13 100 1036.9
20221202135330 35 45 0.9 5.2 0.00 0.16 0.13 100 1036.8
20221202134329 35 90 0.9 6.1 0.01 0.16 0.13 100 1036.8
20221202133326 35 40 1.7 6.1 0.01 0.15 0.12 100 1036.8
20221202132324 35 40 1.7 6.1 0.01 0.15 0.12 100 1036.8
20221202131322 35 59 1.7 4.3 0.01 0.15 0.12 100 1036.7
20221202130320 35 59 1.7 4.3 0.01 0.15 0.12 100 1036.7
20221202125318 35 90 1.7 5.2 0.02 0.15 0.12 100 1036.7
20221202124316 35 75 1.7 3.5 0.01 0.15 0.12 100 1036.8
20221202123315 35 45 1.7 4.3 0.01 0.14 0.12 100 1036.8
20221202122313 35 66 0.9 3.5 0.02 0.14 0.12 100 1036.8
20221202121310 35 76 1.7 6.1 0.02 0.15 0.12 100 1036.8
20221202120308 35 7 1.7 9.6 0.02 0.15 0.11 100 1036.8
20221202115306 35 111 1.7 5.2 0.02 0.14 0.11 100 1036.8
20221202114304 35 26 1.7 6.1 0.02 0.14 0.11 100 1036.8
20221202113302 35 251 1.7 5.2 0.02 0.14 0.10 100 1036.9
20221202112300 35 270 1.7 3.5 0.02 0.14 0.10 100 1037.0
20221202111258 35 281 1.7 5.2 0.02 0.14 0.10 100 1037.0
20221202110257 34 249 1.7 3.5 0.02 0.13 0.10 100 1037.0
20221202105254 34 239 2.6 7.0 0.02 0.13 0.09 100 1037.1
20221202104252 34 234 1.7 3.5 0.03 0.13 0.09 100 1037.1
20221202103250 34 228 2.6 5.2 0.02 0.12 0.09 100 1037.2
20221202102248 34 225 2.6 6.1 0.02 0.12 0.08 100 1037.2
20221202101246 34 235 2.6 6.1 0.02 0.11 0.08 100 1037.1
20221202100244 34 227 3.5 6.1 0.02 0.11 0.08 100 1037.1
20221202095242 34 227 3.5 6.1 0.02 0.10 0.07 100 1037.1
20221202094240 34 270 4.3 7.0 0.02 0.10 0.06 100 1037.1
20221202093238 34 253 4.3 7.0 0.02 0.10 0.06 100 1037.1
20221202092236 34 277 4.3 8.7 0.02 0.10 0.06 100 1037.0
20221202091234 34 270 3.5 5.2 0.02 0.09 0.06 100 1036.9
20221202090232 34 270 3.5 5.2 0.02 0.09 0.06 100 1036.9
20221202085230 34 282 5.2 7.8 0.02 0.09 0.05 100 1036.9
20221202084228 33 270 4.3 7.8 0.01 0.08 0.04 100 1036.9
20221202083226 33 270 4.3 7.8 0.02 0.08 0.04 100 1036.9
20221202082224 34 281 4.3 7.8 0.02 0.08 0.04 100 1036.9
20221202081222 34 287 4.3 8.7 0.01 0.08 0.04 100 1036.8
20221202080220 34 279 4.3 7.8 0.02 0.07 0.04 100 1036.7
20221202075218 34 279 4.3 7.8 0.02 0.07 0.04 100 1036.7
20221202074216 34 261 4.3 7.8 0.02 0.07 0.03 100 1036.7
20221202073215 34 242 5.2 7.8 0.02 0.06 0.03 100 1036.5
20221202072212 34 242 5.2 7.8 0.02 0.06 0.03 100 1036.5
20221202071210 33 245 5.2 9.6 0.02 0.06 0.03 100 1036.3
20221202070208 33 245 5.2 9.6 0.01 0.06 0.02 100 1036.3
20221202065206 33 238 5.2 8.7 0.01 0.05 0.02 100 1036.3
20221202064204 33 237 5.2 8.7 0.01 0.05 0.02 100 1036.3
20221202063202 33 241 5.2 7.0 0.01 0.05 0.01 100 1036.3
20221202062200 33 237 5.2 9.6 0.01 0.04 0.01 100 1036.3
20221202061158 33 236 4.3 6.1 0.01 0.04 0.01 100 1036.2
20221202060156 33 235 5.2 7.8 0.01 0.04 0.01 100 1036.2
20221202055154 33 255 4.3 7.8 0.01 0.04 0.01 100 1036.2